| time (UTC) | temp C | wind direction | speed KPH | gust KPH | rain 1hr cm | rain 24hr cm | rain mn cm | humidity % | barometer mb |
| 20260507230522 | 6 | 261 | 1.6 | 4.8 | 0.00 | 4.17 | 4.17 | 94 | 1002.9 |
| 20260507230019 | 6 | 282 | 1.6 | 4.8 | 0.00 | 4.17 | 4.17 | 94 | 1002.8 |
| 20260507225515 | 6 | 290 | 0.0 | 6.4 | 0.00 | 4.17 | 4.17 | 94 | 1002.9 |
| 20260507225034 | 6 | 212 | 3.2 | 6.4 | 0.00 | 4.17 | 4.17 | 94 | 1003.0 |
| 20260507224521 | 6 | 231 | 0.0 | 8.0 | 0.00 | 4.17 | 4.17 | 94 | 1003.0 |
| 20260507224015 | 6 | 271 | 1.6 | 8.0 | 0.00 | 4.17 | 4.17 | 94 | 1003.1 |
| 20260507223524 | 6 | 226 | 1.6 | 8.0 | 0.00 | 4.17 | 4.17 | 94 | 1003.0 |
| 20260507223019 | 6 | 236 | 3.2 | 8.0 | 0.00 | 4.17 | 4.17 | 94 | 1003.0 |
| 20260507222515 | 6 | 263 | 1.6 | 9.7 | 0.00 | 4.17 | 4.17 | 94 | 1002.9 |
| 20260507221526 | 6 | 252 | 3.2 | 9.7 | 0.00 | 4.17 | 4.17 | 94 | 1003.0 |
| 20260507221023 | 6 | 205 | 3.2 | 12.9 | 0.00 | 4.17 | 4.17 | 94 | 1003.2 |
| 20260507220528 | 6 | 296 | 3.2 | 8.0 | 0.00 | 4.17 | 4.17 | 94 | 1002.9 |
| 20260507220019 | 6 | 285 | 3.2 | 9.7 | 0.00 | 4.17 | 4.17 | 94 | 1003.0 |
| 20260507215516 | 6 | 245 | 1.6 | 9.7 | 0.00 | 4.17 | 4.17 | 94 | 1003.1 |
| 20260507214535 | 6 | 251 | 1.6 | 9.7 | 0.00 | 4.17 | 4.17 | 95 | 1003.0 |
| 20260507214022 | 6 | 156 | 3.2 | 9.7 | 0.00 | 4.17 | 4.17 | 94 | 1003.0 |
| 20260507213519 | 6 | 228 | 4.8 | 9.7 | 0.00 | 4.17 | 4.17 | 94 | 1003.0 |
| 20260507213027 | 6 | 286 | 3.2 | 8.0 | 0.00 | 4.17 | 4.17 | 94 | 1003.1 |
| 20260507210526 | 6 | 269 | 1.6 | 11.3 | 0.00 | 4.17 | 4.17 | 94 | 1003.4 |
| 20260507205523 | 6 | 250 | 3.2 | 9.7 | 0.00 | 4.17 | 4.17 | 94 | 1003.4 |
| 20260507205020 | 6 | 233 | 1.6 | 9.7 | 0.00 | 4.17 | 4.17 | 94 | 1003.3 |
| 20260507204515 | 6 | 292 | 3.2 | 9.7 | 0.00 | 4.17 | 4.17 | 94 | 1003.1 |
| 20260507204033 | 6 | 245 | 3.2 | 9.7 | 0.00 | 4.17 | 4.17 | 94 | 1003.1 |
| 20260507203520 | 7 | 249 | 3.2 | 11.3 | 0.00 | 4.17 | 4.17 | 94 | 1003.2 |
| 20260507203027 | 7 | 110 | 3.2 | 12.9 | 0.00 | 4.17 | 4.17 | 94 | 1003.2 |
| 20260507201517 | 7 | 297 | 3.2 | 19.3 | 0.00 | 4.17 | 4.17 | 94 | 1003.4 |
| 20260507201035 | 7 | 250 | 6.4 | 19.3 | 0.00 | 4.17 | 4.17 | 94 | 1003.5 |
| 20260507200522 | 7 | 217 | 4.8 | 12.9 | 0.00 | 4.17 | 4.17 | 94 | 1003.6 |
| 20260507200015 | 7 | 248 | 4.8 | 12.9 | 0.00 | 4.17 | 4.17 | 94 | 1003.7 |
| 20260507193515 | 7 | 142 | 4.8 | 19.3 | 0.05 | 4.17 | 4.17 | 94 | 1003.4 |
| 20260507192526 | 7 | 223 | 6.4 | 17.7 | 0.08 | 4.17 | 4.17 | 94 | 1003.6 |
| 20260507191519 | 8 | 282 | 1.6 | 14.5 | 0.10 | 4.17 | 4.17 | 94 | 1003.3 |
| 20260507191016 | 8 | 239 | 4.8 | 17.7 | 0.10 | 4.17 | 4.17 | 95 | 1003.3 |
| 20260507190015 | 8 | 127 | 3.2 | 14.5 | 0.10 | 4.14 | 4.14 | 94 | 1002.2 |
| 20260507184019 | 8 | 98 | 9.7 | 16.1 | 0.33 | 4.11 | 4.11 | 94 | 1002.1 |
| 20260507183543 | 8 | 191 | 8.0 | 14.5 | 0.38 | 4.11 | 4.11 | 95 | 1003.1 |
| 20260507180524 | 8 | 269 | 3.2 | 8.0 | 0.69 | 4.04 | 4.04 | 95 | 1004.6 |
| 20260507180030 | 8 | 231 | 3.2 | 9.7 | 0.71 | 4.01 | 4.01 | 95 | 1004.7 |
| 20260507175515 | 8 | 234 | 4.8 | 11.3 | 0.74 | 3.99 | 3.99 | 95 | 1004.3 |
| 20260507174515 | 8 | 248 | 3.2 | 8.0 | 0.71 | 3.86 | 3.86 | 95 | 1005.5 |
| 20260507171020 | 8 | 231 | 3.2 | 8.0 | 1.04 | 3.40 | 3.40 | 94 | 1005.7 |
| 20260507170516 | 8 | 243 | 3.2 | 8.0 | 1.35 | 3.33 | 3.33 | 95 | 1005.5 |
| 20260507165518 | 8 | 251 | 3.2 | 9.7 | 1.85 | 3.25 | 3.25 | 95 | 1005.2 |
| 20260507165016 | 8 | 229 | 4.8 | 9.7 | 2.01 | 3.20 | 3.20 | 95 | 1005.3 |
| 20260507164522 | 8 | 230 | 3.2 | 9.7 | 2.08 | 3.15 | 3.15 | 95 | 1005.3 |
| 20260507164022 | 8 | 231 | 4.8 | 9.7 | 2.06 | 3.10 | 3.10 | 95 | 1005.6 |
| 20260507163518 | 8 | 297 | 3.2 | 6.4 | 1.96 | 2.97 | 2.97 | 94 | 1006.0 |
| 20260507163015 | 8 | 157 | 3.2 | 9.7 | 1.93 | 2.95 | 2.95 | 94 | 1006.1 |
| 20260507162524 | 8 | 321 | 1.6 | 16.1 | 1.91 | 2.92 | 2.92 | 94 | 1006.1 |
| 20260507162023 | 8 | 347 | 3.2 | 16.1 | 1.83 | 2.82 | 2.82 | 94 | 1006.3 |
| 20260507161519 | 8 | 314 | 4.8 | 16.1 | 1.63 | 2.59 | 2.59 | 95 | 1006.1 |
| 20260507161016 | 8 | 283 | 3.2 | 14.5 | 1.37 | 2.31 | 2.31 | 94 | 1005.8 |
| 20260507160021 | 8 | 266 | 4.8 | 16.1 | 0.81 | 1.68 | 1.68 | 94 | 1005.6 |
| 20260507153534 | 9 | 152 | 8.0 | 19.3 | 0.25 | 1.02 | 1.02 | 94 | 1005.2 |
| 20260507153019 | 9 | 258 | 9.7 | 19.3 | 0.28 | 1.02 | 1.02 | 94 | 1005.3 |
| 20260507152515 | 9 | 219 | 9.7 | 24.1 | 0.28 | 1.02 | 1.02 | 94 | 1005.5 |
| 20260507151515 | 9 | 169 | 9.7 | 29.0 | 0.25 | 0.97 | 0.97 | 94 | 1005.8 |
| 20260507151023 | 9 | 238 | 11.3 | 29.0 | 0.25 | 0.94 | 0.94 | 95 | 1005.9 |
| 20260507150520 | 9 | 143 | 9.7 | 24.1 | 0.23 | 0.89 | 0.89 | 95 | 1006.1 |
| 20260507150026 | 8 | 179 | 8.0 | 24.1 | 0.20 | 0.86 | 0.86 | 95 | 1006.3 |
| 20260507145523 | 8 | 30 | 8.0 | 22.5 | 0.18 | 0.84 | 0.84 | 95 | 1006.2 |
| 20260507145020 | 8 | 192 | 9.7 | 24.1 | 0.18 | 0.81 | 0.81 | 94 | 1006.3 |
| 20260507144516 | 8 | 148 | 11.3 | 25.7 | 0.23 | 0.81 | 0.81 | 94 | 1006.4 |
| 20260507144023 | 8 | 167 | 9.7 | 30.6 | 0.23 | 0.79 | 0.79 | 94 | 1006.4 |
| 20260507143522 | 8 | 190 | 11.3 | 30.6 | 0.25 | 0.76 | 0.76 | 94 | 1006.5 |
| 20260507143019 | 8 | 179 | 8.0 | 20.9 | 0.28 | 0.74 | 0.74 | 94 | 1006.7 |
| 20260507142516 | 8 | 191 | 8.0 | 24.1 | 0.28 | 0.74 | 0.74 | 94 | 1006.7 |
| 20260507142023 | 8 | 157 | 11.3 | 27.4 | 0.30 | 0.74 | 0.74 | 94 | 1006.8 |
| 20260507141520 | 8 | 200 | 12.9 | 27.4 | 0.28 | 0.71 | 0.71 | 94 | 1007.0 |
| 20260507141032 | 8 | 142 | 11.3 | 27.4 | 0.28 | 0.69 | 0.69 | 94 | 1007.3 |
| 20260507140523 | 9 | 146 | 9.7 | 24.1 | 0.25 | 0.66 | 0.66 | 94 | 1007.3 |
| 20260507140022 | 9 | 181 | 12.9 | 22.5 | 0.28 | 0.66 | 0.66 | 94 | 1007.4 |
| 20260507135524 | 9 | 176 | 9.7 | 25.7 | 0.30 | 0.64 | 0.64 | 94 | 1007.5 |
| 20260507135015 | 9 | 217 | 12.9 | 25.7 | 0.33 | 0.61 | 0.61 | 94 | 1007.6 |
| 20260507134522 | 8 | 149 | 11.3 | 27.4 | 0.33 | 0.58 | 0.58 | 94 | 1007.7 |
| 20260507134019 | 8 | 248 | 12.9 | 27.4 | 0.30 | 0.56 | 0.56 | 94 | 1007.8 |
| 20260507133515 | 8 | 230 | 9.7 | 22.5 | 0.25 | 0.51 | 0.51 | 94 | 1007.8 |
| 20260507133023 | 8 | 212 | 9.7 | 24.1 | 0.20 | 0.46 | 0.46 | 94 | 1008.0 |
| 20260507132536 | 8 | 174 | 11.3 | 24.1 | 0.18 | 0.43 | 0.43 | 94 | 1008.0 |
| 20260507132026 | 8 | 259 | 9.7 | 24.1 | 0.18 | 0.43 | 0.43 | 94 | 1008.1 |
| 20260507131523 | 8 | 221 | 14.5 | 20.9 | 0.20 | 0.43 | 0.43 | 94 | 1008.0 |
| 20260507131022 | 8 | 148 | 9.7 | 27.4 | 0.20 | 0.41 | 0.41 | 94 | 1008.2 |
| 20260507130520 | 8 | 228 | 9.7 | 27.4 | 0.20 | 0.41 | 0.41 | 93 | 1008.4 |
| 20260507130017 | 8 | 226 | 6.4 | 22.5 | 0.18 | 0.38 | 0.38 | 94 | 1008.6 |
| 20260507125533 | 8 | 176 | 9.7 | 22.5 | 0.15 | 0.33 | 0.33 | 94 | 1008.6 |
| 20260507125021 | 8 | 229 | 11.3 | 22.5 | 0.10 | 0.28 | 0.28 | 94 | 1008.5 |
| 20260507124515 | 8 | 175 | 9.7 | 27.4 | 0.10 | 0.25 | 0.25 | 93 | 1008.8 |
| 20260507124023 | 8 | 160 | 11.3 | 27.4 | 0.10 | 0.25 | 0.25 | 93 | 1008.8 |
| 20260507123520 | 8 | 240 | 9.7 | 24.1 | 0.10 | 0.25 | 0.25 | 94 | 1008.8 |
| 20260507123026 | 8 | 216 | 8.0 | 24.1 | 0.10 | 0.25 | 0.25 | 94 | 1008.6 |
| 20260507122523 | 8 | 223 | 9.7 | 20.9 | 0.10 | 0.25 | 0.25 | 93 | 1008.8 |
| 20260507122024 | 8 | 89 | 9.7 | 24.1 | 0.08 | 0.23 | 0.23 | 93 | 1008.6 |
| 20260507121531 | 8 | 191 | 9.7 | 25.7 | 0.08 | 0.23 | 0.23 | 93 | 1008.8 |
| 20260507121017 | 8 | 181 | 8.0 | 20.9 | 0.05 | 0.20 | 0.20 | 93 | 1008.8 |
| 20260507120523 | 8 | 228 | 9.7 | 20.9 | 0.05 | 0.20 | 0.20 | 93 | 1009.0 |
| 20260507120031 | 8 | 220 | 9.7 | 20.9 | 0.05 | 0.20 | 0.20 | 93 | 1009.1 |
| 20260507115515 | 8 | 156 | 9.7 | 20.9 | 0.03 | 0.18 | 0.18 | 93 | 1009.2 |
| 20260507115023 | 8 | 150 | 6.4 | 20.9 | 0.03 | 0.18 | 0.18 | 93 | 1009.5 |
| 20260507114520 | 8 | 255 | 9.7 | 19.3 | 0.00 | 0.15 | 0.15 | 93 | 1009.4 |
| 20260507114027 | 8 | 184 | 8.0 | 20.9 | 0.00 | 0.15 | 0.15 | 93 | 1009.6 |
| 20260507113523 | 8 | 122 | 9.7 | 22.5 | 0.00 | 0.15 | 0.15 | 93 | 1009.6 |
| 20260507113020 | 8 | 191 | 9.7 | 19.3 | 0.00 | 0.15 | 0.15 | 93 | 1009.6 |
| 20260507112516 | 8 | 178 | 8.0 | 19.3 | 0.00 | 0.15 | 0.15 | 93 | 1009.8 |
| 20260507112034 | 8 | 245 | 8.0 | 20.9 | 0.00 | 0.15 | 0.15 | 93 | 1009.9 |
| 20260507111522 | 8 | 219 | 8.0 | 19.3 | 0.03 | 0.15 | 0.15 | 93 | 1009.9 |
| 20260507111020 | 8 | 153 | 8.0 | 19.3 | 0.03 | 0.15 | 0.15 | 93 | 1009.9 |
| 20260507110515 | 8 | 238 | 9.7 | 19.3 | 0.03 | 0.15 | 0.15 | 94 | 1009.7 |
| 20260507110023 | 8 | 188 | 6.4 | 30.6 | 0.03 | 0.15 | 0.15 | 94 | 1009.8 |
| 20260507105522 | 8 | 198 | 8.0 | 30.6 | 0.05 | 0.15 | 0.15 | 94 | 1009.8 |
| 20260507105021 | 8 | 181 | 6.4 | 19.3 | 0.08 | 0.15 | 0.15 | 93 | 1010.0 |
| 20260507104515 | 8 | 173 | 8.0 | 19.3 | 0.08 | 0.15 | 0.15 | 93 | 1010.0 |
| 20260507104023 | 8 | 205 | 9.7 | 19.3 | 0.10 | 0.15 | 0.15 | 93 | 1010.0 |
| 20260507103536 | 8 | 160 | 9.7 | 19.3 | 0.10 | 0.15 | 0.15 | 93 | 1010.0 |
| 20260507103023 | 8 | 208 | 11.3 | 22.5 | 0.10 | 0.15 | 0.15 | 93 | 1010.1 |
| 20260507102517 | 8 | 165 | 6.4 | 22.5 | 0.10 | 0.15 | 0.15 | 93 | 1010.3 |
| 20260507102023 | 8 | 197 | 8.0 | 22.5 | 0.13 | 0.15 | 0.15 | 93 | 1010.5 |
| 20260507101520 | 8 | 161 | 8.0 | 22.5 | 0.10 | 0.13 | 0.13 | 93 | 1010.5 |
| 20260507101016 | 8 | 165 | 9.7 | 25.7 | 0.10 | 0.13 | 0.13 | 93 | 1010.6 |
| 20260507100534 | 8 | 132 | 11.3 | 25.7 | 0.10 | 0.13 | 0.13 | 93 | 1010.5 |
| 20260507100020 | 8 | 124 | 9.7 | 20.9 | 0.10 | 0.13 | 0.13 | 93 | 1010.5 |
| 20260507095516 | 8 | 129 | 8.0 | 20.9 | 0.10 | 0.10 | 0.10 | 93 | 1010.6 |
| 20260507095034 | 8 | 232 | 9.7 | 24.1 | 0.08 | 0.08 | 0.08 | 93 | 1010.3 |
| 20260507094522 | 8 | 213 | 8.0 | 24.1 | 0.08 | 0.08 | 0.08 | 93 | 1010.5 |
| 20260507094031 | 8 | 175 | 9.7 | 24.1 | 0.05 | 0.05 | 0.05 | 93 | 1010.5 |
| 20260507093516 | 8 | 167 | 11.3 | 24.1 | 0.05 | 0.05 | 0.05 | 93 | 1010.4 |
| 20260507093023 | 8 | 127 | 9.7 | 20.9 | 0.05 | 0.05 | 0.05 | 93 | 1010.3 |
| 20260507092520 | 8 | 146 | 11.3 | 20.9 | 0.03 | 0.03 | 0.03 | 92 | 1010.5 |
| 20260507092016 | 8 | 214 | 6.4 | 19.3 | 0.03 | 0.03 | 0.03 | 92 | 1010.5 |
| 20260507091523 | 8 | 189 | 9.7 | 22.5 | 0.03 | 0.03 | 0.03 | 92 | 1010.4 |
| 20260507091022 | 8 | 217 | 8.0 | 22.5 | 0.03 | 0.03 | 0.03 | 92 | 1010.5 |
| 20260507090520 | 8 | 205 | 9.7 | 22.5 | 0.03 | 0.03 | 0.03 | 92 | 1010.6 |
| 20260507090016 | 8 | 236 | 6.4 | 22.5 | 0.03 | 0.03 | 0.03 | 92 | 1010.6 |
| 20260507085523 | 8 | 139 | 6.4 | 17.7 | 0.00 | 0.00 | 0.00 | 92 | 1010.7 |
| 20260507085023 | 8 | 234 | 11.3 | 24.1 | 0.00 | 0.00 | 0.00 | 92 | 1010.8 |
| 20260507084516 | 8 | 131 | 9.7 | 20.9 | 0.00 | 0.00 | 0.00 | 91 | 1011.0 |
| 20260507084023 | 8 | 189 | 8.0 | 22.5 | 0.00 | 0.00 | 0.00 | 91 | 1010.7 |
| 20260507083522 | 8 | 219 | 8.0 | 17.7 | 0.00 | 0.00 | 0.00 | 91 | 1010.6 |
| 20260507083020 | 8 | 172 | 8.0 | 24.1 | 0.00 | 0.00 | 0.00 | 90 | 1010.9 |
| 20260507082521 | 8 | 156 | 11.3 | 24.1 | 0.00 | 0.00 | 0.00 | 90 | 1010.9 |
| 20260507082035 | 8 | 160 | 9.7 | 20.9 | 0.00 | 0.00 | 0.00 | 90 | 1011.1 |
| 20260507081523 | 8 | 193 | 9.7 | 20.9 | 0.00 | 0.00 | 0.00 | 89 | 1011.1 |
| 20260507081021 | 8 | 158 | 9.7 | 20.9 | 0.00 | 0.00 | 0.00 | 89 | 1011.2 |
| 20260507080516 | 8 | 198 | 8.0 | 16.1 | 0.00 | 0.00 | 0.00 | 89 | 1011.1 |
| 20260507080024 | 8 | 268 | 9.7 | 19.3 | 0.00 | 0.00 | 0.00 | 89 | 1011.2 |
| 20260507075533 | 8 | 215 | 8.0 | 20.9 | 0.00 | 0.00 | 0.00 | 89 | 1011.2 |
| 20260507075031 | 8 | 215 | 8.0 | 22.5 | 0.00 | 0.00 | 0.00 | 89 | 1011.4 |
| 20260507074516 | 8 | 242 | 8.0 | 20.9 | 0.00 | 0.00 | 0.00 | 89 | 1011.2 |
| 20260507074023 | 8 | 171 | 8.0 | 20.9 | 0.00 | 0.00 | 0.00 | 89 | 1011.3 |
| 20260507073522 | 8 | 240 | 8.0 | 20.9 | 0.00 | 0.00 | 0.00 | 89 | 1011.2 |
| 20260507073020 | 8 | 214 | 8.0 | 22.5 | 0.00 | 0.00 | 0.00 | 89 | 1011.3 |
| 20260507072518 | 8 | 146 | 11.3 | 24.1 | 0.00 | 0.00 | 0.00 | 89 | 1011.3 |
| 20260507072027 | 8 | 218 | 9.7 | 24.1 | 0.00 | 0.00 | 0.00 | 89 | 1011.5 |
| 20260507071523 | 8 | 221 | 8.0 | 19.3 | 0.00 | 0.00 | 0.00 | 89 | 1011.6 |
| 20260507071023 | 8 | 117 | 8.0 | 19.3 | 0.00 | 0.00 | 0.00 | 90 | 1011.5 |
| 20260507070531 | 8 | 216 | 9.7 | 22.5 | 0.00 | 0.00 | 0.00 | 90 | 1011.5 |
| 20260507070018 | 8 | 226 | 9.7 | 25.7 | 0.00 | 0.00 | 0.00 | 89 | 1011.8 |
| 20260507065517 | 8 | 181 | 8.0 | 25.7 | 0.00 | 0.00 | 0.00 | 90 | 1012.2 |
| 20260507065023 | 7 | 145 | 8.0 | 20.9 | 0.00 | 0.00 | 0.00 | 90 | 1012.3 |
| 20260507064523 | 7 | 195 | 9.7 | 20.9 | 0.00 | 0.00 | 0.00 | 90 | 1012.3 |
| 20260507064022 | 7 | 150 | 8.0 | 24.1 | 0.00 | 0.00 | 0.00 | 90 | 1012.3 |
| 20260507063516 | 7 | 174 | 8.0 | 16.1 | 0.00 | 0.00 | 0.00 | 90 | 1012.3 |
| 20260507063034 | 7 | 176 | 6.4 | 16.1 | 0.00 | 0.00 | 0.00 | 90 | 1012.1 |
| 20260507062522 | 7 | 192 | 3.2 | 14.5 | 0.00 | 0.00 | 0.00 | 90 | 1012.1 |
| 20260507062020 | 7 | 239 | 4.8 | 14.5 | 0.00 | 0.00 | 0.00 | 90 | 1012.2 |
| 20260507061522 | 7 | 148 | 4.8 | 14.5 | 0.00 | 0.00 | 0.00 | 90 | 1012.4 |
| 20260507061024 | 7 | 256 | 6.4 | 14.5 | 0.00 | 0.00 | 0.00 | 89 | 1012.8 |
| 20260507060522 | 7 | 196 | 6.4 | 14.5 | 0.00 | 0.00 | 0.00 | 89 | 1012.7 |
| 20260507060020 | 8 | 184 | 6.4 | 14.5 | 0.00 | 0.00 | 0.00 | 90 | 1013.0 |
| 20260507055524 | 8 | 216 | 4.8 | 14.5 | 0.00 | 0.00 | 0.00 | 90 | 1013.2 |
| 20260507055016 | 8 | 226 | 8.0 | 16.1 | 0.00 | 0.00 | 0.00 | 90 | 1013.5 |
| 20260507054536 | 8 | 116 | 6.4 | 14.5 | 0.00 | 0.00 | 0.00 | 90 | 1013.5 |
| 20260507054022 | 8 | 184 | 4.8 | 12.9 | 0.00 | 0.00 | 0.00 | 90 | 1013.8 |
| 20260507053520 | 8 | 211 | 4.8 | 12.9 | 0.00 | 0.00 | 0.00 | 89 | 1013.8 |
| 20260507053029 | 8 | 295 | 4.8 | 19.3 | 0.00 | 0.00 | 0.00 | 89 | 1014.0 |
| 20260507052516 | 8 | 254 | 6.4 | 19.3 | 0.00 | 0.00 | 0.00 | 89 | 1014.0 |
| 20260507052034 | 8 | 245 | 3.2 | 17.7 | 0.00 | 0.00 | 0.00 | 89 | 1014.3 |
| 20260507051521 | 8 | 219 | 6.4 | 17.7 | 0.00 | 0.00 | 0.00 | 90 | 1014.4 |
| 20260507051029 | 8 | 215 | 6.4 | 14.5 | 0.00 | 0.00 | 0.00 | 89 | 1014.5 |
| 20260507050517 | 8 | 349 | 4.8 | 14.5 | 0.00 | 0.00 | 0.00 | 90 | 1014.5 |
| 20260507050024 | 8 | 187 | 6.4 | 12.9 | 0.00 | 0.00 | 0.00 | 90 | 1014.6 |
| 20260507045523 | 8 | 160 | 3.2 | 12.9 | 0.00 | 0.00 | 0.00 | 90 | 1014.6 |
| 20260507045019 | 8 | 173 | 6.4 | 12.9 | 0.00 | 0.00 | 0.00 | 90 | 1014.5 |
| 20260507044517 | 8 | 248 | 3.2 | 12.9 | 0.00 | 0.00 | 0.00 | 90 | 1014.6 |
| 20260507044023 | 8 | 141 | 3.2 | 12.9 | 0.00 | 0.00 | 0.00 | 91 | 1014.6 |
| 20260507043523 | 7 | 235 | 3.2 | 12.9 | 0.00 | 0.00 | 0.00 | 91 | 1014.8 |
| 20260507043019 | 7 | 214 | 3.2 | 12.9 | 0.00 | 0.00 | 0.00 | 91 | 1014.9 |
| 20260507042527 | 7 | 226 | 3.2 | 14.5 | 0.00 | 0.00 | 0.00 | 91 | 1015.1 |
| 20260507042024 | 7 | 160 | 3.2 | 14.5 | 0.00 | 0.00 | 0.00 | 91 | 1015.1 |
| 20260507041521 | 7 | 226 | 4.8 | 12.9 | 0.00 | 0.00 | 0.00 | 91 | 1015.1 |
| 20260507041019 | 7 | 150 | 3.2 | 11.3 | 0.00 | 0.00 | 0.00 | 91 | 1015.1 |
| 20260507040516 | 7 | 136 | 1.6 | 9.7 | 0.00 | 0.00 | 0.00 | 91 | 1015.3 |
| 20260507040024 | 7 | 245 | 4.8 | 12.9 | 0.00 | 0.00 | 0.00 | 91 | 1015.4 |
| 20260507035523 | 7 | 264 | 6.4 | 12.9 | 0.00 | 0.00 | 0.00 | 91 | 1015.6 |
| 20260507035021 | 7 | 258 | 0.0 | 9.7 | 0.00 | 0.00 | 0.00 | 90 | 1015.6 |
| 20260507034519 | 7 | 343 | 1.6 | 9.7 | 0.00 | 0.00 | 0.00 | 90 | 1015.8 |
| 20260507034016 | 7 | 231 | 3.2 | 12.9 | 0.00 | 0.00 | 0.00 | 90 | 1015.9 |
| 20260507033523 | 7 | 231 | 4.8 | 12.9 | 0.00 | 0.00 | 0.00 | 90 | 1015.7 |
| 20260507033023 | 7 | 269 | 3.2 | 12.9 | 0.00 | 0.00 | 0.00 | 90 | 1015.9 |
| 20260507032520 | 7 | 135 | 3.2 | 11.3 | 0.00 | 0.00 | 0.00 | 90 | 1015.9 |
| 20260507032019 | 7 | 17 | 3.2 | 14.5 | 0.00 | 0.00 | 0.00 | 90 | 1016.0 |
| 20260507031516 | 7 | 105 | 4.8 | 20.9 | 0.00 | 0.00 | 0.00 | 90 | 1015.8 |
| 20260507031024 | 7 | 184 | 6.4 | 20.9 | 0.00 | 0.00 | 0.00 | 89 | 1015.9 |
| 20260507030523 | 7 | 127 | 6.4 | 12.9 | 0.00 | 0.00 | 0.00 | 89 | 1016.1 |
| 20260507030019 | 7 | 172 | 4.8 | 11.3 | 0.00 | 0.00 | 0.00 | 88 | 1016.3 |
| 20260507025518 | 8 | 155 | 6.4 | 11.3 | 0.00 | 0.00 | 0.00 | 88 | 1016.5 |
| 20260507025023 | 8 | 137 | 1.6 | 6.4 | 0.00 | 0.00 | 0.00 | 89 | 1016.6 |
| 20260507024523 | 8 | 221 | 0.0 | 4.8 | 0.00 | 0.00 | 0.00 | 88 | 1016.7 |
| 20260507024021 | 8 | 291 | 1.6 | 11.3 | 0.00 | 0.00 | 0.00 | 88 | 1016.7 |
| 20260507023518 | 8 | 329 | 1.6 | 11.3 | 0.00 | 0.00 | 0.00 | 88 | 1016.8 |
| 20260507023016 | 8 | 196 | 3.2 | 9.7 | 0.00 | 0.00 | 0.00 | 88 | 1016.9 |
| 20260507022535 | 8 | 261 | 1.6 | 4.8 | 0.00 | 0.00 | 0.00 | 88 | 1016.9 |
| 20260507022038 | 8 | 9 | 1.6 | 9.7 | 0.00 | 0.00 | 0.00 | 88 | 1017.2 |
| 20260507021532 | 8 | 326 | 3.2 | 16.1 | 0.00 | 0.00 | 0.00 | 89 | 1017.3 |
| 20260507021018 | 8 | 269 | 4.8 | 20.9 | 0.00 | 0.00 | 0.00 | 89 | 1017.0 |
| 20260507020524 | 8 | 193 | 4.8 | 20.9 | 0.00 | 0.00 | 0.00 | 89 | 1017.1 |
| 20260507020033 | 8 | 204 | 4.8 | 16.1 | 0.00 | 0.00 | 0.00 | 89 | 1017.4 |
| 20260507015519 | 8 | 245 | 4.8 | 16.1 | 0.00 | 0.00 | 0.00 | 90 | 1017.4 |
| 20260507015029 | 8 | 341 | 0.0 | 8.0 | 0.00 | 0.00 | 0.00 | 89 | 1017.4 |
| 20260507014534 | 8 | 224 | 1.6 | 11.3 | 0.00 | 0.00 | 0.00 | 89 | 1017.6 |
| 20260507014023 | 8 | 241 | 3.2 | 11.3 | 0.00 | 0.00 | 0.00 | 89 | 1017.5 |
| 20260507013522 | 8 | 276 | 4.8 | 16.1 | 0.00 | 0.00 | 0.00 | 90 | 1017.7 |
| 20260507013018 | 8 | 221 | 4.8 | 14.5 | 0.00 | 0.00 | 0.00 | 90 | 1017.8 |
| 20260507012517 | 7 | 253 | 4.8 | 12.9 | 0.00 | 0.00 | 0.00 | 90 | 1017.9 |
| 20260507012025 | 7 | 245 | 1.6 | 4.8 | 0.00 | 0.00 | 0.00 | 90 | 1018.0 |
| 20260507011523 | 7 | 232 | 1.6 | 6.4 | 0.00 | 0.00 | 0.00 | 89 | 1018.1 |
| 20260507011021 | 7 | 303 | 0.0 | 6.4 | 0.00 | 0.00 | 0.00 | 89 | 1018.2 |
| 20260507010518 | 8 | 297 | 3.2 | 8.0 | 0.00 | 0.00 | 0.00 | 89 | 1018.3 |
| 20260507010021 | 8 | 249 | 1.6 | 8.0 | 0.00 | 0.00 | 0.00 | 89 | 1018.3 |
| 20260507004023 | 8 | 226 | 8.0 | 20.9 | 0.00 | 0.00 | 0.00 | 90 | 1018.2 |
| 20260507003521 | 8 | 168 | 8.0 | 20.9 | 0.00 | 0.00 | 0.00 | 90 | 1018.1 |
| 20260507003019 | 8 | 212 | 6.4 | 20.9 | 0.00 | 0.00 | 0.00 | 90 | 1018.1 |
| 20260507002527 | 7 | 153 | 3.2 | 14.5 | 0.00 | 0.00 | 0.00 | 90 | 1018.2 |
| 20260507001517 | 7 | 176 | 4.8 | 17.7 | 0.00 | 0.00 | 0.00 | 90 | 1018.1 |
| 20260506235017 | 8 | 181 | 8.0 | 20.9 | 0.00 | 0.00 | 0.00 | 88 | 1018.1 |
| 20260506234020 | 8 | 229 | 3.2 | 17.7 | 0.00 | 0.00 | 0.00 | 89 | 1018.2 |
| 20260506233516 | 8 | 210 | 6.4 | 17.7 | 0.00 | 0.00 | 0.00 | 89 | 1018.1 |
| 20260506233023 | 8 | 319 | 3.2 | 17.7 | 0.00 | 0.00 | 0.00 | 89 | 1018.2 |
| 20260506232523 | 8 | 95 | 4.8 | 16.1 | 0.00 | 0.00 | 0.00 | 89 | 1018.3 |
| 20260506232021 | 8 | 300 | 4.8 | 11.3 | 0.00 | 0.00 | 0.00 | 88 | 1018.3 |